Location: Borea
(45.6167°N, 23.0167°E)
Time: 21:07:32
(UTC+00:00)

BREEZE-M DEB (TANK) - Pass Details

Date: 03 February 2023
Orbit: 426 x 13838 km, 45.9° (Epoch: 20 March)

Event Time Altitude Azimuth Distance (km) Brightness Sun altitude
Rises 17:16:31 0° 277° (W) 2,501 7.2 -17.7°
Reaches altitude 10° 17:18:00 10° 277° (W) 1,793 6.1 -17.9°
Maximum altitude 17:21:29 90° 6° (N) 823 3.1 -18.5°
Enters shadow 17:25:24 28° 98° (E) 2,234 4.8 -19.2°
